Regional Weather Roundup
Issued by NWS

Home | Current Version | Previous Version | Graphics & Text | Print | Product List | Glossary On
Versions: 1 2 3 4 5 6 7 8 9 10 11 12 13 14 15 16 17 18 19 20 21 22 23 24 25 26 27 28 29 30 31 32 33 34 35 36 37 38 39 40 41 42 43 44 45 46 47 48 49 50
000
ASUS45 KSLC 162110
RWRUT

UTAH REGIONAL WEATHER ROUNDUP
NATIONAL WEATHER SERVICE SALT LAKE CITY UT
300 PM MDT TUE SEP 16 2014

UTZ001>011-023>025-162200-

NORTHERN UTAH

CITY           SKY/WX    TMP DP  RH WIND       PRES   REMARKS
HILL AFB       SUNNY     88  42  19 VRB6      30.08F
LOGAN          SUNNY     86  43  22 VRB3      30.05F
OGDEN          SUNNY     88  40  18 CALM      30.05F
PROVO AIRPORT  MOSUNNY   82  48  30 VRB5      30.09F
SALT LAKE CITY MOSUNNY   92  35  13 S10       30.02F
VERNAL         SUNNY     82  45  27 NE3       30.14F
WENDOVER       SUNNY     86  41  20 E8        30.02F
HEBER CITY     MOSUNNY   86  34  15 SW14      30.13F
WEST JORDAN    SUNNY     90  39  17 SE14      30.06F

$$

UTZ012>022-026-027-162200-

SOUTHERN UTAH

CITY           SKY/WX    TMP DP  RH WIND       PRES   REMARKS
BRYCE CANYON   MOSUNNY   76  42  29 S13       30.32F
CEDAR CITY     MOSUNNY   86  34  15 VRB3      30.13F
MILFORD        SUNNY     90  27  10 SW8       30.08F
MOAB/CYNLANDS  SUNNY     88  44  21 VRB7      30.06F
PRICE          MOSUNNY   85  36  17 S10       30.18F
ST GEORGE      PTCLDY    93  46  20 N5        29.95F

$$

REGIONAL REPORTS     COLORADO/ARIZONA

CITY           SKY/WX    TMP DP  RH WIND       PRES   REMARKS
CRAIG, CO      SUNNY     83  33  16 NW8       30.21F
GRAND JUNCTION SUNNY     84  44  24 MISG      30.11F
RIFLE          MOSUNNY   80  43  26 N8        30.17F
MONTROSE       MOSUNNY   85  35  16 W8        30.19F
CORTEZ         SUNNY     84  47  27 SE8       30.19F
PAGE, AZ       SUNNY     90  50  25 N6        30.07F
GRAND CANYON   MOSUNNY   78  47  33 NE10      30.24F
KINGMAN        SUNNY     88  60  38 MISG      30.00F
FLAGSTAFF      PTSUNNY   73  51  46 N12       30.26F

$$

REGIONAL REPORTS    NEVADA/IDAHO/WYOMING

CITY           SKY/WX    TMP DP  RH WIND       PRES   REMARKS
LAS VEGAS, NV  MOSUNNY  100  55  22 SE9       29.83F HX  98
ELY            MOSUNNY   85  33  15 SW12      30.17F
ELKO           MOSUNNY   90  33  13 W15G21    30.04F
POCATELLO, ID  MOSUNNY   90  39  16 N13       30.03F
BURLEY         SUNNY     89  39  17 VRB5      29.97F
EVANSTON, WY   MOSUNNY   78  36  21 SW13      30.25F
ROCK SPRINGS   MOSUNNY   79  30  16 NW14      30.21F

$$



USA.gov is the U.S. government's official web portal to all federal, state and local government web resources and services.